Location: Unspecified
(56.5167°N, 0.0000°E)
Time: 01:21:04
(UTC+02:00)

Cosmos 1674 - Visible Passes

Search period start: 22 October 2019 00:00
Search period end: 31 October 2019 23:00
Orbit: 495 x 519 km, 82.5° (Epoch: 20 October)

Date Brightness Start Highest point End Pass type
(mag) Time Alt. Az. Time Alt. Az. Time Alt. Az.
22 Oct 3.6 06:52:20 10° S 06:55:55 49° E 06:59:34 10° NNE visible
23 Oct 4.1 06:34:49 10° SSE 06:38:18 39° E 06:41:49 10° NNE visible
24 Oct 4.5 06:17:21 10° SSE 06:20:41 32° E 06:24:03 10° NNE visible
24 Oct 3.4 07:52:54 10° SW 07:56:14 31° WNW 07:59:37 10° N visible
25 Oct 4.8 05:59:57 10° SSE 06:03:05 26° E 06:06:14 10° NNE visible
25 Oct 3.1 07:35:01 10° SW 07:38:30 37° WNW 07:42:02 10° N visible
26 Oct 5.1 05:42:37 10° SE 05:45:29 21° E 05:48:24 10° NE visible
26 Oct 2.9 07:17:11 10° SSW 07:20:47 46° WNW 07:24:26 10° N visible
27 Oct 5.4 04:25:29 11° SE 04:27:55 18° E 04:30:29 10° NE visible
27 Oct 2.6 06:00:25 18° SSW 06:03:05 57° WNW 06:06:49 10° N visible
28 Oct 5.6 04:09:13 13° ESE 04:10:21 15° E 04:12:29 10° NE visible
28 Oct 2.5 05:44:07 39° SSW 05:45:23 72° WNW 05:49:09 10° N visible
29 Oct 5.8 03:52:40 12° E 03:52:48 12° E 03:54:17 10° ENE visible
29 Oct 2.5 05:27:33 82° SSW 05:27:42 89° WNW 05:31:30 10° NNE visible
29 Oct 4.5 07:02:26 12° W 07:03:53 14° WNW 07:05:53 10° NNW visible
30 Oct 3.2 05:10:48 53° NNE 05:10:48 53° NNE 05:13:49 10° NNE visible
30 Oct 4.3 06:45:40 16° WNW 06:46:05 16° WNW 06:48:31 10° NNW visible
31 Oct 4.2 04:53:55 31° NNE 04:53:55 31° NNE 04:56:06 10° NNE visible
31 Oct 4.2 06:28:48 19° NW 06:28:48 19° NW 06:31:04 10° NNW visible
